Time,TemperatureF,DewpointF,PressureIn,WindDirection,WindDirectionDegrees,WindSpeedMPH,WindSpeedGustMPH,Humidity,HourlyPrecipIn,Conditions,Clouds,dailyrainin,SoftwareType,DateUTC
2013-03-08 00:02:00,49.0,45.0,30.22,West,267,3.0,4.0,87,-99.99,,,-99.99,,2013-03-08 05:02:00,
2013-03-08 00:12:00,49.0,45.0,30.22,West,267,3.0,4.0,87,-99.99,,,-99.99,,2013-03-08 05:12:00,
2013-03-08 00:22:00,47.0,43.0,30.21,WSW,248,3.0,4.0,88,-99.99,,,-99.99,,2013-03-08 05:22:00,
2013-03-08 00:33:00,47.0,43.0,30.21,WSW,248,3.0,4.0,88,-99.99,,,-99.99,,2013-03-08 05:33:00,
2013-03-08 00:42:00,46.0,43.0,30.20,West,267,2.0,3.0,90,-99.99,,,-99.99,,2013-03-08 05:42:00,
2013-03-08 00:52:00,46.0,44.0,30.20,WNW,296,2.0,4.0,91,-99.99,,,-99.99,,2013-03-08 05:52:00,
2013-03-08 01:02:00,46.0,44.0,30.20,WNW,296,2.0,4.0,91,-99.99,,,-99.99,,2013-03-08 06:02:00,
2013-03-08 01:11:00,47.0,44.0,30.20,West,261,3.0,5.0,91,-99.99,,,-99.99,,2013-03-08 06:11:00,
2013-03-08 01:22:00,46.0,44.0,30.20,West,267,3.0,5.0,91,-99.99,,,-99.99,,2013-03-08 06:22:00,
2013-03-08 01:32:00,46.0,44.0,30.20,West,267,3.0,5.0,91,-99.99,,,-99.99,,2013-03-08 06:32:00,
2013-03-08 01:42:00,46.0,43.0,30.20,WNW,282,4.0,5.0,89,-99.99,,,-99.99,,2013-03-08 06:42:00,
2013-03-08 01:52:00,46.0,43.0,30.20,WNW,286,4.0,5.0,87,-99.99,,,-99.99,,2013-03-08 06:52:00,
2013-03-08 02:01:00,46.0,43.0,30.20,WNW,286,4.0,5.0,87,-99.99,,,-99.99,,2013-03-08 07:01:00,
2013-03-08 02:11:00,46.0,43.0,30.20,WNW,291,4.0,6.0,88,-99.99,,,-99.99,,2013-03-08 07:11:00,
2013-03-08 02:22:00,46.0,42.0,30.19,WNW,291,4.0,6.0,87,-99.99,,,-99.99,,2013-03-08 07:22:00,
2013-03-08 02:32:00,46.0,42.0,30.19,WNW,291,4.0,6.0,87,-99.99,,,-99.99,,2013-03-08 07:32:00,
2013-03-08 02:42:00,47.0,44.0,30.19,NW,304,5.0,7.0,88,-99.99,,,-99.99,,2013-03-08 07:42:00,
2013-03-08 02:52:00,47.0,44.0,30.19,NW,304,5.0,7.0,88,-99.99,,,-99.99,,2013-03-08 07:52:00,
2013-03-08 03:01:00,50.0,46.0,30.19,NW,319,6.0,8.0,83,-99.99,,,-99.99,,2013-03-08 08:01:00,
2013-03-08 03:11:00,50.0,46.0,30.19,NW,319,6.0,8.0,83,-99.99,,,-99.99,,2013-03-08 08:11:00,
2013-03-08 03:22:00,51.0,45.0,30.18,NW,323,7.0,9.0,80,-99.99,,,-99.99,,2013-03-08 08:22:00,
2013-03-08 03:32:00,51.0,45.0,30.18,NW,323,7.0,9.0,80,-99.99,,,-99.99,,2013-03-08 08:32:00,
2013-03-08 03:42:00,49.0,44.0,30.18,WNW,297,4.0,9.0,81,-99.99,,,-99.99,,2013-03-08 08:42:00,
2013-03-08 03:52:00,49.0,44.0,30.18,WNW,297,4.0,9.0,81,-99.99,,,-99.99,,2013-03-08 08:52:00,
2013-03-08 04:03:00,46.0,42.0,30.18,WNW,299,4.0,9.0,87,-99.99,,,-99.99,,2013-03-08 09:03:00,
2013-03-08 04:11:00,46.0,42.0,30.18,WNW,299,4.0,9.0,87,-99.99,,,-99.99,,2013-03-08 09:11:00,
2013-03-08 04:22:00,50.0,46.0,30.17,NNW,335,7.0,10.0,84,-99.99,,,-99.99,,2013-03-08 09:22:00,
2013-03-08 04:32:00,50.0,46.0,30.17,NNW,335,7.0,10.0,84,-99.99,,,-99.99,,2013-03-08 09:32:00,
2013-03-08 04:42:00,51.0,46.0,30.17,NNW,330,6.0,9.0,84,-99.99,,,-99.99,,2013-03-08 09:42:00,
2013-03-08 04:52:00,51.0,46.0,30.17,NNW,330,6.0,9.0,84,-99.99,,,-99.99,,2013-03-08 09:52:00,
2013-03-08 05:01:00,50.0,46.0,30.17,NNW,329,6.0,9.0,85,-99.99,,,-99.99,,2013-03-08 10:01:00,
2013-03-08 05:11:00,50.0,46.0,30.17,NNW,329,6.0,9.0,85,-99.99,,,-99.99,,2013-03-08 10:11:00,
2013-03-08 05:21:00,43.0,40.0,30.17,West,270,3.0,5.0,88,-99.99,,,-99.99,,2013-03-08 10:21:00,
2013-03-08 05:32:00,43.0,40.0,30.17,West,270,3.0,5.0,88,-99.99,,,-99.99,,2013-03-08 10:32:00,
2013-03-08 05:42:00,42.0,40.0,30.17,WSW,253,3.0,4.0,91,-99.99,,,-99.99,,2013-03-08 10:42:00,
2013-03-08 05:52:00,42.0,40.0,30.17,WSW,253,3.0,4.0,91,-99.99,,,-99.99,,2013-03-08 10:52:00,
2013-03-08 06:01:00,41.0,39.0,30.18,West,263,2.0,3.0,92,-99.99,,,-99.99,,2013-03-08 11:01:00,
2013-03-08 06:11:00,41.0,39.0,30.18,West,263,2.0,3.0,92,-99.99,,,-99.99,,2013-03-08 11:11:00,
2013-03-08 06:22:00,41.0,39.0,30.19,West,274,2.0,4.0,93,-99.99,,,-99.99,,2013-03-08 11:22:00,
2013-03-08 06:32:00,41.0,39.0,30.19,West,274,2.0,4.0,93,-99.99,,,-99.99,,2013-03-08 11:32:00,
2013-03-08 06:42:00,39.0,38.0,30.19,SW,228,3.0,4.0,93,-99.99,,,-99.99,,2013-03-08 11:42:00,
2013-03-08 06:52:00,39.0,38.0,30.19,SW,228,3.0,4.0,93,-99.99,,,-99.99,,2013-03-08 11:52:00,
2013-03-08 07:02:00,39.0,37.0,30.18,SW,230,3.0,4.0,94,-99.99,,,-99.99,,2013-03-08 12:02:00,
2013-03-08 07:11:00,39.0,37.0,30.18,SW,230,3.0,4.0,94,-99.99,,,-99.99,,2013-03-08 12:11:00,
2013-03-08 07:22:00,40.0,39.0,30.19,West,270,3.0,5.0,95,-99.99,,,-99.99,,2013-03-08 12:22:00,
2013-03-08 07:32:00,40.0,39.0,30.19,West,270,3.0,5.0,95,-99.99,,,-99.99,,2013-03-08 12:32:00,
2013-03-08 07:43:00,43.0,42.0,30.20,WNW,285,4.0,6.0,95,-99.99,,,-99.99,,2013-03-08 12:43:00,
2013-03-08 07:53:00,43.0,42.0,30.20,WNW,285,4.0,6.0,95,-99.99,,,-99.99,,2013-03-08 12:53:00,
2013-03-08 08:01:00,47.0,46.0,30.21,NNW,327,5.0,8.0,95,-99.99,,,-99.99,,2013-03-08 13:01:00,
2013-03-08 08:11:00,47.0,46.0,30.21,NNW,327,5.0,8.0,95,-99.99,,,-99.99,,2013-03-08 13:11:00,
2013-03-08 08:22:00,50.0,47.0,30.22,NNW,329,5.0,8.0,90,-99.99,,,-99.99,,2013-03-08 13:22:00,
2013-03-08 08:32:00,50.0,47.0,30.22,NNW,329,5.0,8.0,90,-99.99,,,-99.99,,2013-03-08 13:32:00,
2013-03-08 08:42:00,51.0,48.0,30.22,NNW,332,4.0,7.0,89,-99.99,,,-99.99,,2013-03-08 13:42:00,
2013-03-08 08:52:00,51.0,48.0,30.22,NNW,332,4.0,7.0,89,-99.99,,,-99.99,,2013-03-08 13:52:00,
2013-03-08 09:03:00,51.0,48.0,30.22,NW,317,4.0,5.0,87,-99.99,,,-99.99,,2013-03-08 14:03:00,
2013-03-08 09:12:00,51.0,48.0,30.22,NW,317,4.0,5.0,87,-99.99,,,-99.99,,2013-03-08 14:12:00,
2013-03-08 09:22:00,53.0,48.0,30.23,NNW,332,3.0,5.0,85,-99.99,,,-99.99,,2013-03-08 14:22:00,
2013-03-08 09:32:00,53.0,48.0,30.23,NNW,332,3.0,5.0,85,-99.99,,,-99.99,,2013-03-08 14:32:00,
2013-03-08 09:42:00,54.0,49.0,30.23,NW,326,3.0,4.0,83,-99.99,,,-99.99,,2013-03-08 14:42:00,
2013-03-08 09:53:00,54.0,49.0,30.23,NW,326,3.0,4.0,83,-99.99,,,-99.99,,2013-03-08 14:53:00,
2013-03-08 10:03:00,54.0,49.0,30.23,NW,314,3.0,5.0,81,-99.99,,,-99.99,,2013-03-08 15:03:00,
2013-03-08 10:12:00,54.0,49.0,30.23,NW,314,3.0,5.0,81,-99.99,,,-99.99,,2013-03-08 15:12:00,
2013-03-08 10:22:00,56.0,48.0,30.22,NW,318,3.0,4.0,76,-99.99,,,-99.99,,2013-03-08 15:22:00,
2013-03-08 10:32:00,56.0,48.0,30.22,NW,318,3.0,4.0,76,-99.99,,,-99.99,,2013-03-08 15:32:00,
2013-03-08 10:42:00,57.0,48.0,30.22,NW,322,4.0,5.0,71,-99.99,,,-99.99,,2013-03-08 15:42:00,
2013-03-08 10:53:00,57.0,48.0,30.22,NW,322,4.0,5.0,71,-99.99,,,-99.99,,2013-03-08 15:53:00,
2013-03-08 11:01:00,57.0,47.0,30.22,NW,311,4.0,5.0,69,-99.99,,,-99.99,,2013-03-08 16:01:00,
2013-03-08 11:11:00,57.0,47.0,30.22,NW,311,4.0,5.0,69,-99.99,,,-99.99,,2013-03-08 16:11:00,
2013-03-08 11:22:00,60.0,46.0,30.22,WNW,303,5.0,7.0,60,-99.99,,,-99.99,,2013-03-08 16:22:00,
2013-03-08 11:32:00,60.0,46.0,30.22,WNW,303,5.0,7.0,60,-99.99,,,-99.99,,2013-03-08 16:32:00,
2013-03-08 11:42:00,61.0,43.0,30.22,NW,309,7.0,8.0,51,-99.99,,,-99.99,,2013-03-08 16:42:00,
2013-03-08 11:52:00,61.0,43.0,30.22,NW,309,7.0,8.0,51,-99.99,,,-99.99,,2013-03-08 16:52:00,
2013-03-08 12:03:00,62.0,43.0,30.21,NW,314,6.0,8.0,51,-99.99,,,-99.99,,2013-03-08 17:03:00,
2013-03-08 12:12:00,62.0,43.0,30.21,NW,314,6.0,8.0,51,-99.99,,,-99.99,,2013-03-08 17:12:00,
2013-03-08 12:22:00,64.0,42.0,30.20,NW,315,5.0,8.0,44,-99.99,,,-99.99,,2013-03-08 17:22:00,
2013-03-08 12:32:00,64.0,42.0,30.20,NW,315,5.0,8.0,44,-99.99,,,-99.99,,2013-03-08 17:32:00,
2013-03-08 12:42:00,64.0,41.0,30.19,NW,311,5.0,7.0,43,-99.99,,,-99.99,,2013-03-08 17:42:00,
2013-03-08 12:52:00,64.0,41.0,30.19,NW,311,5.0,7.0,43,-99.99,,,-99.99,,2013-03-08 17:52:00,
2013-03-08 13:02:00,65.0,42.0,30.19,WNW,303,4.0,7.0,43,-99.99,,,-99.99,,2013-03-08 18:02:00,
2013-03-08 13:12:00,65.0,42.0,30.19,WNW,303,4.0,7.0,43,-99.99,,,-99.99,,2013-03-08 18:12:00,
2013-03-08 13:22:00,66.0,41.0,30.18,WNW,294,3.0,6.0,40,-99.99,,,-99.99,,2013-03-08 18:22:00,
2013-03-08 13:32:00,66.0,41.0,30.18,WNW,294,3.0,6.0,40,-99.99,,,-99.99,,2013-03-08 18:32:00,
2013-03-08 13:42:00,67.0,40.0,30.17,NW,320,4.0,7.0,38,-99.99,,,-99.99,,2013-03-08 18:42:00,
2013-03-08 13:52:00,67.0,40.0,30.17,NW,320,4.0,7.0,38,-99.99,,,-99.99,,2013-03-08 18:52:00,
2013-03-08 14:01:00,68.0,38.0,30.16,NW,313,3.0,5.0,34,-99.99,,,-99.99,,2013-03-08 19:01:00,
2013-03-08 14:11:00,68.0,38.0,30.16,NW,313,3.0,5.0,34,-99.99,,,-99.99,,2013-03-08 19:11:00,
2013-03-08 14:22:00,69.0,40.0,30.14,NW,312,3.0,6.0,35,-99.99,,,-99.99,,2013-03-08 19:22:00,
2013-03-08 14:32:00,69.0,40.0,30.14,NW,312,3.0,6.0,35,-99.99,,,-99.99,,2013-03-08 19:32:00,
2013-03-08 14:42:00,69.0,41.0,30.13,NNW,330,5.0,7.0,37,-99.99,,,-99.99,,2013-03-08 19:42:00,
2013-03-08 14:52:00,69.0,41.0,30.13,NNW,330,5.0,7.0,37,-99.99,,,-99.99,,2013-03-08 19:52:00,
2013-03-08 15:01:00,70.0,43.0,30.13,NNW,331,5.0,7.0,38,-99.99,,,-99.99,,2013-03-08 20:01:00,
2013-03-08 15:11:00,70.0,43.0,30.13,NNW,331,5.0,7.0,38,-99.99,,,-99.99,,2013-03-08 20:11:00,
2013-03-08 15:22:00,70.0,40.0,30.12,NW,305,5.0,8.0,33,-99.99,,,-99.99,,2013-03-08 20:22:00,
2013-03-08 15:32:00,70.0,40.0,30.12,NW,305,5.0,8.0,33,-99.99,,,-99.99,,2013-03-08 20:32:00,
2013-03-08 15:42:00,70.0,41.0,30.12,WNW,303,5.0,8.0,34,-99.99,,,-99.99,,2013-03-08 20:42:00,
2013-03-08 15:53:00,70.0,41.0,30.12,WNW,303,5.0,8.0,34,-99.99,,,-99.99,,2013-03-08 20:53:00,
2013-03-08 16:02:00,70.0,41.0,30.11,NW,312,5.0,7.0,34,-99.99,,,-99.99,,2013-03-08 21:02:00,
2013-03-08 16:11:00,70.0,41.0,30.11,NW,312,5.0,7.0,34,-99.99,,,-99.99,,2013-03-08 21:11:00,
2013-03-08 16:22:00,71.0,41.0,30.12,NW,304,4.0,6.0,33,-99.99,,,-99.99,,2013-03-08 21:22:00,
2013-03-08 16:32:00,71.0,41.0,30.12,NW,304,4.0,6.0,33,-99.99,,,-99.99,,2013-03-08 21:32:00,
2013-03-08 16:42:00,72.0,39.0,30.12,NW,307,4.0,6.0,30,-99.99,,,-99.99,,2013-03-08 21:42:00,
2013-03-08 16:52:00,72.0,39.0,30.12,NW,307,4.0,6.0,30,-99.99,,,-99.99,,2013-03-08 21:52:00,
2013-03-08 17:01:00,71.0,41.0,30.11,West,267,3.0,4.0,33,-99.99,,,-99.99,,2013-03-08 22:01:00,
2013-03-08 17:11:00,71.0,41.0,30.11,West,267,3.0,4.0,33,-99.99,,,-99.99,,2013-03-08 22:11:00,
2013-03-08 17:22:00,71.0,38.0,30.11,WNW,297,2.0,3.0,29,-99.99,,,-99.99,,2013-03-08 22:22:00,
2013-03-08 17:32:00,71.0,38.0,30.11,WNW,297,2.0,3.0,29,-99.99,,,-99.99,,2013-03-08 22:32:00,
2013-03-08 17:42:00,71.0,39.0,30.11,SW,235,2.0,3.0,30,-99.99,,,-99.99,,2013-03-08 22:42:00,
2013-03-08 17:53:00,71.0,39.0,30.11,SW,235,2.0,3.0,30,-99.99,,,-99.99,,2013-03-08 22:53:00,
2013-03-08 18:02:00,71.0,37.0,30.11,SW,215,2.0,5.0,29,-99.99,,,-99.99,,2013-03-08 23:02:00,
2013-03-08 18:12:00,71.0,37.0,30.11,SW,215,2.0,5.0,29,-99.99,,,-99.99,,2013-03-08 23:12:00,
2013-03-08 18:22:00,70.0,43.0,30.12,NE,44,4.0,6.0,38,-99.99,,,-99.99,,2013-03-08 23:22:00,
2013-03-08 18:32:00,70.0,43.0,30.12,NE,44,4.0,6.0,38,-99.99,,,-99.99,,2013-03-08 23:32:00,
2013-03-08 18:42:00,69.0,37.0,30.12,ENE,58,5.0,7.0,31,-99.99,,,-99.99,,2013-03-08 23:42:00,
2013-03-08 18:53:00,69.0,37.0,30.12,ENE,58,5.0,7.0,31,-99.99,,,-99.99,,2013-03-08 23:53:00,
2013-03-08 19:02:00,67.0,39.0,30.13,ENE,69,7.0,14.0,35,-99.99,,,-99.99,,2013-03-09 00:02:00,
2013-03-08 19:12:00,67.0,39.0,30.13,ENE,69,7.0,14.0,35,-99.99,,,-99.99,,2013-03-09 00:12:00,
2013-03-08 19:22:00,63.0,46.0,30.15,ENE,72,6.0,9.0,54,-99.99,,,-99.99,,2013-03-09 00:22:00,
2013-03-08 19:32:00,63.0,46.0,30.15,ENE,72,6.0,9.0,54,-99.99,,,-99.99,,2013-03-09 00:32:00,
2013-03-08 19:42:00,61.0,46.0,30.16,ENE,71,6.0,12.0,56,-99.99,,,-99.99,,2013-03-09 00:42:00,
2013-03-08 19:52:00,61.0,46.0,30.16,ENE,71,6.0,12.0,56,-99.99,,,-99.99,,2013-03-09 00:52:00,
2013-03-08 20:02:00,60.0,46.0,30.16,ENE,62,7.0,11.0,59,-99.99,,,-99.99,,2013-03-09 01:02:00,
2013-03-08 20:12:00,60.0,46.0,30.16,ENE,62,7.0,11.0,59,-99.99,,,-99.99,,2013-03-09 01:12:00,
2013-03-08 20:22:00,60.0,47.0,30.17,NE,53,9.0,13.0,62,-99.99,,,-99.99,,2013-03-09 01:22:00,
2013-03-08 20:32:00,60.0,47.0,30.17,NE,53,9.0,13.0,62,-99.99,,,-99.99,,2013-03-09 01:32:00,
2013-03-08 20:42:00,58.0,46.0,30.18,ENE,66,7.0,12.0,64,-99.99,,,-99.99,,2013-03-09 01:42:00,
2013-03-08 20:52:00,58.0,46.0,30.18,ENE,66,7.0,12.0,64,-99.99,,,-99.99,,2013-03-09 01:52:00,
2013-03-08 21:01:00,58.0,46.0,30.18,ENE,66,7.0,12.0,64,-99.99,,,-99.99,,2013-03-09 02:01:00,
2013-03-08 21:11:00,58.0,46.0,30.18,ENE,66,7.0,12.0,64,-99.99,,,-99.99,,2013-03-09 02:11:00,
2013-03-08 21:41:00,56.0,47.0,30.18,SSE,150,1.0,3.0,72,-99.99,,,-99.99,,2013-03-09 02:41:00,
2013-03-08 21:51:00,56.0,47.0,30.18,SSE,150,1.0,3.0,72,-99.99,,,-99.99,,2013-03-09 02:51:00,
2013-03-08 22:01:00,55.0,47.0,30.19,NE,47,2.0,5.0,73,-99.99,,,-99.99,,2013-03-09 03:01:00,
2013-03-08 22:11:00,55.0,47.0,30.19,NE,47,2.0,5.0,73,-99.99,,,-99.99,,2013-03-09 03:11:00,
2013-03-08 22:22:00,55.0,47.0,30.19,ENE,57,3.0,5.0,73,-99.99,,,-99.99,,2013-03-09 03:22:00,
2013-03-08 22:31:00,55.0,47.0,30.19,ENE,57,3.0,5.0,73,-99.99,,,-99.99,,2013-03-09 03:31:00,
2013-03-08 22:42:00,54.0,47.0,30.19,NE,50,5.0,6.0,76,-99.99,,,-99.99,,2013-03-09 03:42:00,
2013-03-08 22:52:00,54.0,47.0,30.19,NE,50,5.0,6.0,76,-99.99,,,-99.99,,2013-03-09 03:52:00,
2013-03-08 23:01:00,55.0,48.0,30.19,NE,43,5.0,9.0,78,-99.99,,,-99.99,,2013-03-09 04:01:00,
2013-03-08 23:11:00,55.0,48.0,30.19,NE,43,5.0,9.0,78,-99.99,,,-99.99,,2013-03-09 04:11:00,
2013-03-08 23:22:00,56.0,49.0,30.20,ESE,108,6.0,10.0,76,-99.99,,,-99.99,,2013-03-09 04:22:00,
2013-03-08 23:32:00,56.0,49.0,30.20,ESE,108,6.0,10.0,76,-99.99,,,-99.99,,2013-03-09 04:32:00,
2013-03-08 23:42:00,57.0,49.0,30.20,SSE,156,5.0,9.0,75,-99.99,,,-99.99,,2013-03-09 04:42:00,
2013-03-08 23:52:00,57.0,49.0,30.20,SSE,156,5.0,9.0,75,-99.99,,,-99.99,,2013-03-09 04:52:00,